Location: Cieszkowy
(50.3290°N, 20.5336°E)
Time: 00:46:23
(UTC+00:00)

ADEOS II - Pass Details

Date: 15 June 2024
Orbit: 796 x 797 km, 98.7° (Epoch: 18 July)

Event Time Altitude Azimuth Distance (km) Brightness Sun altitude
Rises 00:37:34 0° 19° (NNE) 3,314 7.3 -11.8°
Reaches altitude 10° 00:39:59 10° 25° (NNE) 2,380 6.1 -11.6°
Maximum altitude 00:45:04 48° 99° (E) 1,032 2.8 -11.2°
Drops below altitude 10° 00:50:07 10° 174° (S) 2,363 4.1 -10.8°
Enters shadow 00:50:33 - 176° (S) 2,525 4.2 -10.8°
